User: anonymous   Login
Location: Lafig�re
(44.4503°N, 4.0357°E)
Time: 17:17:48
(UTC+00:00)
Language:

Transit 4A - Orbit

View from above orbital plane
View from above orbital plane
View from above satellite
View from above satellite

Ground track
Ground track

The orbit data is extracted from the following two-line orbital elements,

1 00116U 61015A   21129.28877034 -.00000044  00000-0  24824-4 0  9998
2 00116  66.8076 131.6570 0071201 144.9348 215.6449 13.91788790 37150
Epoch (UTC): 09 May 2021 06:55:49
Eccentricity: 0.0071201
inclination: 66.8076°
perigee height: 870 km
apogee height: 974 km
right ascension of ascending node: 131.6570°
argument of perigee: 144.9348°
revolutions per day: 13.91788790
mean anomaly at epoch: 215.6449°
orbit number at epoch: 3715

The dashed part of the orbit path shows where the satellite is in the earth's shadow,  

DLR